Location: Baix
(44.7118°N, 4.7648°E)
Time: 06:51:46
(UTC+00:00)

Vanguard 1 - Pass Details

Date: 27 November 2020
Orbit: 648 x 3834 km, 34.3° (Epoch: 21 January)

Event Time Altitude Azimuth Distance (km) Brightness Sun altitude
Rises 03:19:08 0° 192° (SSW) 3,253 - -37.5°
Reaches altitude 10° 03:22:48 10° 163° (SSE) 2,658 - -36.9°
Exits shadow 03:23:03 11° 160° (SSE) 2,645 12.4 -36.8°
Maximum altitude 03:25:33 13° 136° (SE) 2,732 12.7 -36.4°
Drops below altitude 10° 03:28:50 10° 111° (ESE) 3,336 13.4 -35.8°
Sets 03:34:49 0° 88° (E) 5,052 14.7 -34.8°
